Location: Olsztyn
(53.7767°N, 20.4765°E)
Time: 21:46:09
(UTC+01:00)

Envisat - Pass Details

Date: 06 December 2022
Orbit: 763 x 765 km, 98.2° (Epoch: 07 February)

Event Time Altitude Azimuth Distance (km) Brightness Sun altitude
Rises 03:25:27 0° 19° (NNE) 3,248 6.6 -36.1°
Reaches altitude 10° 03:27:54 10° 26° (NNE) 2,317 5.8 -35.7°
Enters shadow 03:30:32 27° 46° (NE) 1,436 4.8 -35.3°
